Terminal Aerodrome Forecast
Issued by NWS Twin Cities, MN

Home | Current Version | Previous Version | Graphics & Text | Print | Product List | Glossary On
Versions: 1 2 3 4 5 6 7 8 9 10 11 12 13 14 15 16 17 18 19 20 21 22 23 24 25 26 27 28 29 30 31 32
128
FTUS43 KMPX 171503 AAA
TAFMSP
TAF AMD
KMSP 171503Z 1715/1818 34008KT 6SM BR OVC010
     FM171700 33008KT 6SM BR BKN007 OVC015
     FM172200 25005KT P6SM SCT150=

USA.gov is the U.S. government's official web portal to all federal, state and local government web resources and services.